Weather History for KNQA - March, 2014

Change the Weather History Date:

Tuesday, March 4, 2014

  Actual Average Record
Temperature  
Mean Temperature 20 °F -  
Max Temperature 28 °F 55 °F 75 °F (2004)
Min Temperature 12 °F 38 °F 12 °F (2014)
Degree Days  
Heating Degree Days 45    
Moisture  
Dew Point 19 °F    
Average Humidity 91    
Maximum Humidity 100    
Minimum Humidity 80    
Precipitation  
Precipitation 0.00 in - - ()
Sea Level Pressure  
Sea Level Pressure 30.24 in    
Wind  
Wind Speed 0 mph (North)    
Max Wind Speed 0 mph    
Max Gust Speed -    
Visibility 9 miles    
Events      
Averages and records for this station are not official NWS values.
T = Trace of Precipitation, MM = Missing Value Source: NWS Daily Summary

Daily Weather History Graph

Daily Weather History Graph

Search for Another Location

Airport or City:

Trip Planner

Search our weather history database for the weather conditions in past years. The results will help you decide how hot, cold, wet, or windy it might be!

Date:

Astronomy

Mar. 04, 2014 Rise Set
Actual Time 6:25 AM CST 5:57 PM CST
Civil Twilight 5:59 AM CST 6:23 PM CST
Nautical Twilight 5:30 AM CST 6:52 PM CST
Astronomical Twilight 5:00 AM CST 7:22 PM CST
Moon 8:20 AM CST 9:54 PM CST
Length of Visible Light 12h 23m
Length of Day
11h 32m
Waxing Crescent, 15% of the Moon is Illuminated
Mar 4
Waxing Crescent
Mar 8
First Quarter
Mar 16
Full
Mar 23
Last Quarter
Mar 30
New

Hourly Weather History & Observations

Time (CST) Temp. Dew Point Humidity Pressure Visibility Wind Dir Wind Speed Gust Speed Precip Events Conditions
12:50 AM 17.6 °F 15.8 °F 93% 30.34 in 10.0 mi Calm Calm - N/A   Overcast
1:50 AM 15.8 °F 14.0 °F 93% 30.30 in 10.0 mi Calm Calm - N/A   Overcast
2:15 AM 15.8 °F 14.0 °F 93% 30.29 in 10.0 mi Calm Calm - N/A   Clear
2:35 AM 15.8 °F 12.2 °F 86% 30.28 in 10.0 mi Calm Calm - N/A   Clear
2:55 AM 15.8 °F 12.2 °F 86% 30.26 in 10.0 mi Calm Calm - N/A   Clear
3:15 AM 15.8 °F 12.2 °F 86% 30.27 in 10.0 mi Calm Calm - N/A   Clear
3:35 AM 14.0 °F 12.2 °F 93% 30.26 in 10.0 mi Calm Calm - N/A   Clear
3:55 AM 14.0 °F 12.2 °F 93% 30.27 in 10.0 mi Calm Calm - N/A   Clear
4:15 AM 14.0 °F 12.2 °F 93% 30.27 in 10.0 mi Calm Calm - N/A   Clear
4:35 AM 14.0 °F 12.2 °F 93% 30.27 in 10.0 mi Calm Calm - N/A   Clear
4:55 AM 12.2 °F 10.4 °F 92% 30.26 in 10.0 mi Calm Calm - N/A   Clear
5:30 AM 14.0 °F 12.2 °F 93% 30.26 in 10.0 mi Calm Calm - N/A   Clear
5:50 AM 14.0 °F 10.4 °F 86% 30.26 in 10.0 mi Calm Calm - N/A   Clear
6:50 AM 14.0 °F 12.2 °F 93% 30.26 in 10.0 mi Calm Calm - N/A   Mostly Cloudy
7:50 AM 17.6 °F 15.8 °F 93% 30.28 in 10.0 mi Calm Calm - N/A   Mostly Cloudy
8:50 AM 21.2 °F 17.6 °F 86% 30.29 in 10.0 mi Calm Calm - N/A   Mostly Cloudy
9:50 AM 23.0 °F 19.4 °F 86% 30.29 in 10.0 mi Calm Calm - N/A   Overcast
10:50 AM 26.6 °F 23.0 °F 86% 30.28 in 10.0 mi Calm Calm - N/A   Overcast
11:50 AM 26.6 °F 21.2 °F 80% 30.25 in 10.0 mi Calm Calm - N/A   Overcast
12:50 PM 26.6 °F 23.0 °F 86% 30.22 in 10.0 mi Calm Calm - N/A   Overcast
1:50 PM 26.6 °F 24.8 °F 93% 30.20 in 10.0 mi Calm Calm - N/A   Overcast
2:50 PM 28.4 °F 24.8 °F 86% 30.19 in 10.0 mi Calm Calm - N/A   Overcast
3:50 PM 26.6 °F 24.8 °F 93% 30.19 in 10.0 mi Calm Calm - N/A   Overcast
4:50 PM 26.6 °F 24.8 °F 93% 30.18 in 10.0 mi Calm Calm - N/A   Overcast
5:50 PM 26.6 °F 24.8 °F 93% 30.17 in 10.0 mi Calm Calm - N/A   Overcast
6:50 PM 26.6 °F 24.8 °F 93% 30.18 in 7.0 mi Calm Calm - N/A   Overcast
7:50 PM 26.6 °F 24.8 °F 93% 30.18 in 7.0 mi Calm Calm - N/A   Overcast
8:50 PM 26.6 °F 26.6 °F 100% 30.20 in 5.0 mi Calm Calm - N/A   Overcast
9:50 PM 26.6 °F 26.6 °F 100% 30.20 in 4.0 mi Calm Calm - N/A   Overcast
10:52 PM 26.6 °F 26.6 °F 100% 30.18 in 0.8 mi Calm Calm - N/A   Overcast
11:52 PM 26.6 °F 26.6 °F 100% 30.16 in 0.8 mi Calm Calm - N/A   Overcast